Dewpoint
56 46 46 39 27 32 42 49 54 53 50 55 57 57 59 60 57 57 66 65 63 67 70 72 76 76 76 77 77 77 76 76 75 75 75 75 75 75 75 75 75 74 74 75 75 75 74 74 73
40 33 35 30 27 26 43 50 51 53 53 55 57 58 59 59 61 63 64 66 65 64 70 73 75 75 75 76 76 76 76 76 75 75 75 74 74 75 74 74 74 74 74 74 74 75 74 74 74
43 33 32 27 27 26 37 48 47 48 54 55 56 60 59 59 64 64 66 69 70 71 72 73 75 75 75 75 75 75 75 75 75 75 74 74 74 74 75 75 75 74 73 73 74 75 75 75 75
27 32 29 23 23 39 46 49 45 48 54 57 59 59 61 62 64 66 67 67 68 71 74 75 75 75 75 75 75 75 75 74 74 74 74 74 74 74 74 74 74 74 73 73 73 75 75 75 75
28 28 25 26 20 43 46 45 47 53 54 55 57 58 61 64 66 67 67 67 68 70 73 75 75 75 75 75 75 75 74 74 74 73 73 73 73 73 73 74 74 74 73 73 74 75 75 75 76
25 23 16 11 17 45 45 46 52 53 59 61 58 59 61 64 66 68 67 67 68 69 73 73 75 76 75 75 75 75 74 74 74 74 74 74 73 73 73 74 74 74 74 74 74 75 75 75 75
23 22 21 17 14 43 45 48 50 50 51 52 56 58 61 62 66 67 66 66 67 67 70 73 75 75 75 75 75 75 75 75 75 75 74 74 75 75 75 74 74 74 74 74 74 75 74 74 75
20 16 14 11 10 18 46 49 49 50 50 52 57 58 58 60 64 64 63 66 65 66 68 70 73 74 74 74 75 75 74 73 73 73 71 71 72 73 75 75 74 75 75 75 75 75 75 75 75
20 14 12 10 11 22 47 47 49 51 52 52 51 58 59 58 59 57 57 56 62 66 68 70 70 70 69 70 71 72 71 70 70 70 68 62 60 61 71 72 75 75 75 75 75 75 74 74 74
19 15 12 12 21 38 39 44 46 48 54 55 57 59 59 57 56 55 52 53 53 49 50 61 69 68 65 64 67 66 67 67 60 55 59 54 56 58 57 61 67 68 72 73 74 73 72 73 70
17 14 11 10 29 40 38 35 38 39 51 54 55 57 57 56 54 52 53 49 41 43 44 51 54 53 48 59 65 61 61 60 58 55 59 56 57 55 56 53 53 55 59 52 55 52 54 51 51
12 11 8 7 13 39 37 36 35 42 49 53 54 54 54 52 49 45 42 41 42 44 47 51 55 56 55 54 55 54 55 58 59 56 56 54 58 56 56 57 56 55 53 52 53 54 53 52 53
12 10 9 10 13 19 34 34 32 40 50 51 52 52 52 51 40 40 40 42 44 45 48 55 55 59 57 59 57 55 55 51 56 59 56 58 56 57 55 58 56 57 55 54 55 54 53 55 53
13 12 10 10 14 19 26 28 30 46 48 49 50 49 48 46 40 43 42 44 45 49 53 55 55 57 54 55 55 57 56 56 57 58 57 59 55 60 56 57 55 56 57 57 55 53 54 56 52
15 15 15 12 17 22 28 28 26 37 44 44 44 44 44 40 39 43 47 48 50 51 54 55 55 57 57 56 56 57 60 55 57 57 57 57 57 58 57 57 57 57 57 58 56 56 54 53 54
17 16 18 12 21 26 29 28 30 34 38 41 41 41 40 41 41 45 50 49 54 54 52 55 54 56 56 60 57 58 58 59 57 58 59 59 58 59 60 60 59 59 61 59 57 56 55 53 52
20 14 15 14 18 24 28 27 28 31 34 39 39 39 40 40 43 48 51 50 54 54 54 53 54 57 59 61 61 61 60 60 60 61 61 60 58 59 60 60 60 61 60 58 56 54 54 53 52
21 15 12 13 16 21 23 22 23 26 34 37 38 38 39 40 44 49 52 52 53 56 57 56 58 59 59 60 61 62 62 61 60 59 59 59 58 56 55 56 55 55 55 54 54 53 52 51 50
20 18 17 19 17 19 19 21 23 24 33 34 36 37 39 41 43 49 50 53 54 56 56 56 57 59 62 64 64 61 60 61 59 58 56 57 55 54 53 53 53 52 52 52 52 52 51 50 50
18 17 17 20 22 19 21 21 22 25 31 32 33 35 39 41 43 48 51 53 55 57 58 59 59 64 62 62 62 63 60 59 59 55 54 53 52 52 49 50 51 51 50 49 49 49 48 48 48
18 22 19 19 20 23 21 23 23 23 25 31 33 34 39 42 41 47 50 53 56 57 60 64 63 62 59 59 58 57 57 54 53 52 51 52 53 51 51 50 50 49 49 48 48 48 47 46 47
19 20 23 23 18 18 23 18 23 25 23 25 32 35 37 40 42 46 50 56 61 62 62 61 60 59 59 57 55 54 53 52 52 51 50 51 51 50 49 50 49 48 48 46 46 45 46 46 45
19 28 25 26 23 23 21 20 21 23 25 28 30 33 35 39 41 46 53 60 61 60 60 60 59 58 57 56 55 53 52 52 51 50 50 48 47 47 47 47 47 47 46 46 45 45 45 46 45
21 27 26 28 22 20 20 20 17 20 26 30 32 33 34 35 50 55 58 59 59 60 61 61 59 56 56 54 51 50 49 50 49 48 46 45 44 45 45 46 45 45 45 45 45 45 44 44 44
21 25 23 22 20 20 25 25 18 30 31 31 31 33 38 49 51 52 54 55 56 56 54 53 54 51 51 50 49 49 49 48 47 46 44 43 42 43 44 45 46 44 45 45 45 45 44 44 45
24 26 28 24 23 23 26 24 30 33 32 31 30 39 43 46 49 50 51 50 49 49 49 48 48 48 47 47 47 48 47 45 44 44 43 43 42 44 45 44 45 45 45 45 45 45 45 45 44
21 25 24 25 27 25 24 26 39 37 35 29 28 39 45 48 49 50 50 49 48 48 47 46 46 45 45 45 45 44 44 44 43 42 42 44 44 44 44 45 45 46 46 45 45 44 44 44 44
20 23 21 32 23 22 23 26 35 37 36 36 32 38 46 48 48 48 47 47 46 46 46 45 44 43 43 43 43 43 43 43 42 43 43 44 44 44 45 46 45 44 44 44 44 44 44 44 44
21 20 22 27 32 26 26 29 42 43 44 42 38 37 47 48 48 47 46 46 45 44 44 44 43 42 42 42 42 41 42 43 43 43 43 44 45 44 45 44 44 44 44 45 45 45 45 45 46
31 35 37 35 34 35 36 34 45 45 42 39 40 43 46 48 48 45 45 45 44 44 43 43 42 41 41 41 41 42 43 43 42 43 44 45 44 44 43 44 44 44 45 45 45 45 46 46 46
Lifted_Index
10 9 7 5 2 1 0 -0 -0 -2 -3 -4 -4 -4 -4 -4 -3 -3 -3 -3 -2 -1 -2 -3 -4 -5 -5 -5 -6 -5 -5 -5 -5 -4 -4 -4 -4 -4 -4 -4 -4 -4 -4 -4 -4 -4 -4 -3 -3
9 8 7 4 2 1 0 -0 -1 -2 -3 -3 -4 -4 -4 -4 -3 -3 -3 -3 -3 -2 -3 -3 -4 -5 -5 -5 -5 -5 -5 -5 -5 -4 -4 -4 -4 -4 -4 -4 -4 -4 -4 -4 -4 -4 -4 -4 -4
8 7 5 3 1 0 -0 -1 -1 -2 -2 -3 -3 -4 -4 -4 -4 -4 -4 -4 -4 -4 -4 -4 -4 -5 -5 -5 -5 -5 -5 -5 -5 -4 -4 -4 -4 -4 -4 -4 -4 -4 -4 -5 -5 -5 -5 -5 -5
7 6 4 2 1 -0 -1 -1 -1 -2 -3 -3 -4 -4 -4 -4 -4 -4 -5 -5 -5 -5 -5 -5 -5 -5 -5 -5 -5 -5 -4 -4 -4 -4 -4 -4 -4 -4 -4 -4 -4 -4 -4 -4 -5 -5 -5 -5 -5
6 5 3 1 0 -0 -1 -1 -1 -2 -3 -4 -4 -4 -5 -5 -5 -5 -5 -5 -5 -5 -6 -6 -6 -6 -5 -5 -5 -5 -4 -4 -4 -4 -3 -3 -3 -4 -4 -4 -4 -4 -4 -4 -4 -5 -5 -5 -5
5 4 2 1 0 -1 -1 -1 -1 -2 -3 -4 -4 -5 -5 -5 -5 -5 -5 -6 -5 -5 -5 -6 -6 -6 -6 -6 -6 -5 -5 -5 -4 -4 -4 -4 -4 -4 -4 -4 -4 -4 -4 -4 -4 -4 -4 -4 -5
4 3 2 1 -0 -1 -2 -2 -1 -1 -1 -2 -4 -5 -5 -5 -5 -5 -5 -5 -4 -4 -4 -5 -6 -6 -6 -6 -6 -5 -5 -4 -4 -4 -4 -4 -4 -4 -4 -5 -4 -4 -4 -4 -4 -4 -4 -4 -4
4 3 1 0 0 -1 -1 -2 -1 -1 -1 -1 -3 -4 -4 -5 -5 -4 -4 -4 -3 -3 -3 -4 -5 -5 -5 -5 -5 -5 -4 -3 -3 -2 -2 -1 -1 -3 -4 -4 -5 -5 -5 -5 -4 -4 -5 -5 -4
5 3 1 0 0 -0 -1 -2 -1 -1 -1 -2 -3 -4 -4 -4 -3 -2 -2 -2 -2 -2 -3 -4 -4 -4 -3 -3 -3 -3 -2 -1 -1 0 1 2 2 1 -1 -2 -3 -3 -4 -4 -4 -4 -4 -4 -4
4 3 1 1 0 -1 -1 -1 -1 -2 -2 -3 -3 -4 -4 -3 -2 -1 -0 -0 -0 0 -0 -1 -1 -1 -1 -1 -1 -1 -1 1 2 3 4 4 4 4 3 3 2 1 0 -1 -1 -0 -0 -0 0
3 3 1 1 -0 -1 -1 -1 -1 -1 -2 -3 -3 -4 -3 -3 -1 -0 0 1 2 3 4 3 3 2 2 2 1 1 1 2 4 4 4 5 5 5 5 5 5 5 4 4 4 4 4 4 4
3 3 2 1 0 -0 -0 0 0 -1 -2 -2 -2 -3 -3 -2 -1 1 2 3 4 5 5 5 4 4 4 4 4 4 4 4 4 4 5 5 5 5 5 5 5 5 5 5 5 5 6 6 6
3 2 2 2 1 0 -0 -0 -0 -1 -1 -1 -2 -2 -2 -1 1 2 3 4 5 5 5 4 4 4 4 4 4 4 4 4 4 4 4 4 4 4 4 4 4 5 5 5 5 5 6 6 5
2 2 2 2 2 1 1 0 -0 -1 -1 -1 -1 -1 -0 1 2 4 4 5 5 5 4 4 3 3 4 4 3 3 4 4 4 4 4 4 3 3 3 3 4 4 4 4 4 5 5 6 6
3 3 3 3 2 2 1 1 1 -0 -0 0 0 1 1 2 3 4 4 5 4 4 4 3 3 3 3 3 3 3 3 3 3 3 3 3 3 3 3 3 3 3 3 3 4 4 5 5 6
3 3 3 3 2 2 2 2 1 1 1 1 2 2 2 3 4 4 4 4 4 4 3 3 3 3 2 2 2 2 2 2 2 2 2 2 2 2 2 2 3 3 3 3 3 4 4 5 6
3 3 2 2 2 2 2 2 1 1 1 2 2 2 3 3 4 4 4 3 3 3 3 3 2 2 1 1 1 1 1 1 1 1 1 1 2 2 2 2 3 3 4 4 4 5 5 6 7
3 2 1 1 1 1 1 2 2 2 2 2 2 3 3 3 3 3 3 3 3 2 2 2 2 1 -0 -0 -1 -1 -0 -0 0 1 1 2 2 2 3 4 4 5 6 6 7 7 8 8 8
3 2 1 0 0 0 1 1 2 2 2 2 2 2 2 3 3 3 3 2 2 2 1 1 1 -1 -1 -2 -2 -1 -1 -0 0 1 2 2 3 4 5 6 7 8 8 8 8 9 9 9 9
2 2 1 0 -0 -0 0 1 1 1 2 2 1 2 2 2 2 2 2 2 1 1 1 0 -1 -2 -3 -3 -2 -1 -0 1 2 3 3 4 5 7 8 8 9 9 9 9 9 9 9 8 8
2 2 1 1 0 0 0 0 1 1 1 1 1 0 1 1 1 1 1 1 0 0 -0 -1 -2 -3 -3 -3 -2 -1 1 3 4 5 6 6 7 8 9 9 9 9 9 9 9 9 8 7 7
3 2 2 2 1 0 0 1 1 1 1 0 0 -0 -0 -0 -0 -0 -0 -1 -1 -1 -1 -2 -2 -3 -3 -2 -1 1 3 4 5 6 7 8 9 9 9 9 10 9 9 9 8 8 8 8 7
3 3 3 2 2 1 1 1 1 1 1 0 -0 -0 -0 -0 -1 -1 -1 -2 -2 -2 -2 -2 -2 -2 -1 -0 1 3 4 5 6 7 9 9 10 10 10 10 10 9 9 9 9 9 9 9 8
3 3 3 2 2 1 1 1 1 1 1 0 0 0 -0 -1 -1 -2 -2 -2 -2 -2 -2 -2 -2 -1 0 2 4 5 6 6 8 9 10 11 11 11 10 10 10 9 9 10 10 10 10 9 9
2 2 2 1 1 1 1 1 1 1 1 0 0 0 -0 -1 -2 -2 -2 -2 -2 -2 -2 -1 -1 -0 2 3 5 7 8 9 10 11 11 11 11 10 10 10 10 10 10 11 11 11 10 10 9
2 2 2 1 1 1 1 1 1 1 1 1 0 0 -0 -1 -2 -2 -2 -1 -1 -1 -1 -1 -0 1 3 5 7 9 10 11 11 12 11 11 11 11 11 11 11 11 11 11 11 10 10 9 9
1 2 1 1 1 1 1 1 0 0 0 1 1 -0 -1 -1 -1 -1 -1 -1 -0 -0 -0 0 1 3 5 7 9 11 11 12 11 11 11 11 11 11 11 11 11 11 11 10 10 10 9 9 9
1 1 1 1 1 1 1 1 0 0 0 1 0 -0 -1 -1 -1 -0 -0 -0 0 1 1 2 3 5 7 10 11 12 12 11 11 11 11 11 11 11 11 11 11 10 10 10 9 9 9 9 9
0 0 0 0 0 0 0 0 -0 0 0 0 0 -0 -1 -1 -0 0 0 -0 0 1 2 3 5 7 10 11 12 12 11 11 11 12 12 12 12 11 11 10 10 10 9 9 9 8 8 8 8
0 0 -0 -0 -0 -0 -1 -1 -0 -0 -0 0 0 -0 -1 -1 -0 0 -0 -0 -0 1 2 4 6 9 11 12 12 11 11 12 12 12 12 12 12 11 11 10 10 9 9 9 8 8 7 7 7